Time,TemperatureF,DewpointF,PressureIn,WindDirection,WindDirectionDegrees,WindSpeedMPH,WindSpeedGustMPH,Humidity,HourlyPrecipIn,Conditions,Clouds,dailyrainin,SoftwareType,DateUTC
2013-02-04 00:01:00,50.4,46.0,30.10,North,10,0.0,0.0,85,0.00,,,0.00,meteohub,2013-02-04 05:01:00,
2013-02-04 00:02:00,50.2,45.9,30.10,North,10,0.0,0.0,85,0.00,,,0.00,meteohub,2013-02-04 05:02:00,
2013-02-04 00:03:00,50.2,45.9,30.10,North,10,0.0,0.0,85,0.00,,,0.00,meteohub,2013-02-04 05:03:00,
2013-02-04 00:08:00,50.2,46.2,30.10,North,10,0.0,0.0,86,0.00,,,0.00,meteohub,2013-02-04 05:08:00,
2013-02-04 00:13:00,50.4,46.4,30.10,North,10,0.0,0.0,86,0.00,,,0.00,meteohub,2013-02-04 05:13:00,
2013-02-04 00:18:00,50.4,46.0,30.09,North,10,0.0,0.0,85,0.00,,,0.00,meteohub,2013-02-04 05:18:00,
2013-02-04 00:23:00,50.2,46.2,30.10,North,10,0.0,0.0,86,0.00,,,0.00,meteohub,2013-02-04 05:23:00,
2013-02-04 00:28:00,50.2,46.2,30.09,North,10,0.0,0.0,86,0.00,,,0.00,meteohub,2013-02-04 05:28:00,
2013-02-04 00:33:00,50.2,46.2,30.09,North,10,0.0,0.0,86,0.00,,,0.00,meteohub,2013-02-04 05:33:00,
2013-02-04 00:38:00,50.0,46.0,30.09,North,10,0.0,0.0,86,0.00,,,0.00,meteohub,2013-02-04 05:38:00,
2013-02-04 00:43:00,50.0,46.0,30.09,North,10,0.0,0.0,86,0.00,,,0.00,meteohub,2013-02-04 05:43:00,
2013-02-04 00:48:00,50.0,46.0,30.09,WNW,283,0.0,0.0,86,0.00,,,0.00,meteohub,2013-02-04 05:48:00,
2013-02-04 00:53:00,50.2,46.4,30.09,West,277,0.0,4.0,87,0.00,,,0.00,meteohub,2013-02-04 05:53:00,
2013-02-04 00:58:00,50.7,46.8,30.09,West,269,0.0,4.0,86,0.00,,,0.00,meteohub,2013-02-04 05:58:00,
2013-02-04 01:03:00,51.4,46.8,30.09,West,269,0.0,4.0,84,0.00,,,0.00,meteohub,2013-02-04 06:03:00,
2013-02-04 01:08:00,51.6,46.9,30.09,West,269,0.0,1.0,84,0.00,,,0.00,meteohub,2013-02-04 06:08:00,
2013-02-04 01:13:00,51.6,46.9,30.09,West,277,0.0,0.0,84,0.00,,,0.00,meteohub,2013-02-04 06:13:00,
2013-02-04 01:18:00,52.0,47.3,30.09,West,277,0.0,2.0,84,0.00,,,0.00,meteohub,2013-02-04 06:18:00,
2013-02-04 01:23:00,52.2,47.5,30.09,West,277,0.0,2.0,84,0.00,,,0.00,meteohub,2013-02-04 06:23:00,
2013-02-04 01:28:00,52.2,47.5,30.09,West,277,0.0,2.0,84,0.00,,,0.00,meteohub,2013-02-04 06:28:00,
2013-02-04 01:33:00,52.2,47.5,30.09,West,277,0.0,1.0,84,0.00,,,0.00,meteohub,2013-02-04 06:33:00,
2013-02-04 01:38:00,52.2,47.8,30.09,West,277,0.0,1.0,85,0.00,,,0.00,meteohub,2013-02-04 06:38:00,
2013-02-04 01:43:00,52.2,47.8,30.09,West,274,0.0,0.0,85,0.00,,,0.00,meteohub,2013-02-04 06:43:00,
2013-02-04 01:48:00,52.2,48.0,30.09,West,274,0.0,0.0,86,0.00,,,0.00,meteohub,2013-02-04 06:48:00,
2013-02-04 01:53:00,52.0,48.2,30.09,West,274,0.0,0.0,87,0.00,,,0.00,meteohub,2013-02-04 06:53:00,
2013-02-04 01:58:00,52.0,48.2,30.09,West,274,0.0,0.0,87,0.00,,,0.00,meteohub,2013-02-04 06:58:00,
2013-02-04 02:03:00,52.0,48.6,30.09,WNW,293,0.0,0.0,88,0.00,,,0.00,meteohub,2013-02-04 07:03:00,
2013-02-04 02:08:00,52.0,48.9,30.09,WNW,296,0.0,1.0,89,0.00,,,0.00,meteohub,2013-02-04 07:08:00,
2013-02-04 02:13:00,52.2,49.1,30.09,WNW,296,0.0,1.0,89,0.00,,,0.00,meteohub,2013-02-04 07:13:00,
2013-02-04 02:18:00,52.3,49.3,30.09,WNW,290,0.0,2.0,89,0.00,,,0.00,meteohub,2013-02-04 07:18:00,
2013-02-04 02:23:00,52.3,49.3,30.09,WNW,290,0.0,2.0,89,0.00,,,0.00,meteohub,2013-02-04 07:23:00,
2013-02-04 02:29:00,52.3,49.3,30.09,WNW,289,0.0,2.0,89,0.00,,,0.00,meteohub,2013-02-04 07:29:00,
2013-02-04 02:34:00,52.3,48.9,30.09,WNW,289,0.0,1.0,88,0.00,,,0.00,meteohub,2013-02-04 07:34:00,
2013-02-04 02:39:00,52.3,49.3,30.09,WNW,289,0.0,1.0,89,0.00,,,0.00,meteohub,2013-02-04 07:39:00,
2013-02-04 02:44:00,52.2,48.7,30.09,WNW,289,0.0,0.0,88,0.00,,,0.00,meteohub,2013-02-04 07:44:00,
2013-02-04 02:49:00,52.2,49.1,30.09,WNW,289,0.0,0.0,89,0.00,,,0.00,meteohub,2013-02-04 07:49:00,
2013-02-04 02:54:00,52.2,49.3,30.09,WNW,289,0.0,1.0,90,0.00,,,0.00,meteohub,2013-02-04 07:54:00,
2013-02-04 02:59:00,52.2,49.3,30.09,NW,321,0.0,1.0,90,0.00,,,0.00,meteohub,2013-02-04 07:59:00,
2013-02-04 03:04:00,52.3,49.3,30.09,NW,322,0.0,1.0,89,0.00,,,0.00,meteohub,2013-02-04 08:04:00,
2013-02-04 03:09:00,52.2,49.1,30.09,NW,321,0.0,1.0,89,0.00,,,0.00,meteohub,2013-02-04 08:09:00,
2013-02-04 03:14:00,52.2,48.7,30.09,NW,322,0.0,1.0,88,0.00,,,0.00,meteohub,2013-02-04 08:14:00,
2013-02-04 03:19:00,52.2,48.7,30.09,NW,322,0.0,0.0,88,0.00,,,0.00,meteohub,2013-02-04 08:19:00,
2013-02-04 03:24:00,52.2,48.7,30.09,NW,308,0.0,0.0,88,0.00,,,0.00,meteohub,2013-02-04 08:24:00,
2013-02-04 03:29:00,52.2,48.4,30.09,NW,320,0.0,1.0,87,0.00,,,0.00,meteohub,2013-02-04 08:29:00,
2013-02-04 03:34:00,52.2,48.0,30.09,NNW,344,0.0,1.0,86,0.00,,,0.00,meteohub,2013-02-04 08:34:00,
2013-02-04 03:39:00,52.2,48.0,30.09,North,355,0.0,2.0,86,0.00,,,0.00,meteohub,2013-02-04 08:39:00,
2013-02-04 03:44:00,52.2,47.8,30.09,NW,317,0.0,2.0,85,0.00,,,0.00,meteohub,2013-02-04 08:44:00,
2013-02-04 03:49:00,52.2,47.5,30.09,NNW,346,0.0,2.0,84,0.00,,,0.00,meteohub,2013-02-04 08:49:00,
2013-02-04 03:54:00,52.2,47.5,30.09,NNW,342,0.0,2.0,84,0.00,,,0.00,meteohub,2013-02-04 08:54:00,
2013-02-04 03:59:00,52.2,47.5,30.09,NNW,342,0.0,2.0,84,0.00,,,0.00,meteohub,2013-02-04 08:59:00,
2013-02-04 04:04:00,52.2,46.8,30.09,NNW,342,0.0,2.0,82,0.00,,,0.00,meteohub,2013-02-04 09:04:00,
2013-02-04 04:09:00,52.2,46.6,30.09,North,355,0.0,1.0,81,0.00,,,0.00,meteohub,2013-02-04 09:09:00,
2013-02-04 04:14:00,52.2,46.2,30.09,NNW,343,0.0,3.0,80,0.00,,,0.00,meteohub,2013-02-04 09:14:00,
2013-02-04 04:19:00,52.2,45.9,30.09,NNW,336,0.0,3.0,79,0.00,,,0.00,meteohub,2013-02-04 09:19:00,
2013-02-04 04:24:00,52.2,45.1,30.09,NNW,335,0.0,3.0,77,0.00,,,0.00,meteohub,2013-02-04 09:24:00,
2013-02-04 04:29:00,52.2,45.1,30.09,NNW,335,0.0,2.0,77,0.00,,,0.00,meteohub,2013-02-04 09:29:00,
2013-02-04 04:34:00,52.2,45.1,30.09,North,350,0.0,1.0,77,0.00,,,0.00,meteohub,2013-02-04 09:34:00,
2013-02-04 04:39:00,52.2,44.8,30.09,North,355,0.0,2.0,76,0.00,,,0.00,meteohub,2013-02-04 09:39:00,
2013-02-04 04:44:00,52.2,44.8,30.09,NNW,346,0.0,2.0,76,0.00,,,0.00,meteohub,2013-02-04 09:44:00,
2013-02-04 04:49:00,52.0,44.2,30.09,North,0,1.0,2.0,75,0.00,,,0.00,meteohub,2013-02-04 09:49:00,
2013-02-04 04:54:00,52.0,43.5,30.09,North,0,0.0,2.0,73,0.00,,,0.00,meteohub,2013-02-04 09:54:00,
2013-02-04 04:59:00,52.0,43.2,30.09,North,11,0.0,2.0,72,0.00,,,0.00,meteohub,2013-02-04 09:59:00,
2013-02-04 05:04:00,52.0,42.8,30.09,NNE,13,0.0,2.0,71,0.00,,,0.00,meteohub,2013-02-04 10:04:00,
2013-02-04 05:09:00,51.8,42.3,30.09,NW,322,0.0,2.0,70,0.00,,,0.00,meteohub,2013-02-04 10:09:00,
2013-02-04 05:14:00,51.6,42.1,30.09,NNW,336,0.0,3.0,70,0.00,,,0.00,meteohub,2013-02-04 10:14:00,
2013-02-04 05:19:00,51.6,41.7,30.09,NNE,17,0.0,3.0,69,0.00,,,0.00,meteohub,2013-02-04 10:19:00,
2013-02-04 05:24:00,51.4,41.2,30.09,NNE,13,0.0,3.0,68,0.00,,,0.00,meteohub,2013-02-04 10:24:00,
2013-02-04 05:29:00,51.4,40.8,30.09,North,9,0.0,1.0,67,0.00,,,0.00,meteohub,2013-02-04 10:29:00,
2013-02-04 05:34:00,51.3,40.6,30.10,North,9,0.0,1.0,67,0.00,,,0.00,meteohub,2013-02-04 10:34:00,
2013-02-04 05:39:00,51.3,40.6,30.10,North,9,0.0,1.0,67,0.00,,,0.00,meteohub,2013-02-04 10:39:00,
2013-02-04 05:44:00,51.1,40.5,30.10,North,9,0.0,1.0,67,0.00,,,0.00,meteohub,2013-02-04 10:44:00,
2013-02-04 05:49:00,51.1,40.5,30.11,North,5,0.0,0.0,67,0.00,,,0.00,meteohub,2013-02-04 10:49:00,
2013-02-04 05:54:00,50.9,40.3,30.11,North,5,0.0,1.0,67,0.00,,,0.00,meteohub,2013-02-04 10:54:00,
2013-02-04 05:59:00,50.7,40.1,30.11,North,5,0.0,1.0,67,0.00,,,0.00,meteohub,2013-02-04 10:59:00,
2013-02-04 06:04:00,50.7,39.7,30.11,NNE,20,0.0,1.0,66,0.00,,,0.00,meteohub,2013-02-04 11:04:00,
2013-02-04 06:09:00,50.7,39.7,30.11,NNE,20,0.0,1.0,66,0.00,,,0.00,meteohub,2013-02-04 11:09:00,
2013-02-04 06:14:00,50.5,39.6,30.11,NNE,20,0.0,1.0,66,0.00,,,0.00,meteohub,2013-02-04 11:14:00,
2013-02-04 06:20:00,50.4,39.7,30.11,NNE,20,0.0,1.0,67,0.00,,,0.00,meteohub,2013-02-04 11:20:00,
2013-02-04 06:25:00,50.2,40.5,30.11,NNE,20,0.0,0.0,69,0.00,,,0.00,meteohub,2013-02-04 11:25:00,
2013-02-04 06:30:00,50.0,40.6,30.11,NNE,20,0.0,0.0,70,0.00,,,0.00,meteohub,2013-02-04 11:30:00,
2013-02-04 06:35:00,49.8,40.8,30.11,NNE,20,0.0,0.0,71,0.00,,,0.00,meteohub,2013-02-04 11:35:00,
2013-02-04 06:40:00,49.6,41.0,30.11,NNE,19,0.0,0.0,72,0.00,,,0.00,meteohub,2013-02-04 11:40:00,
2013-02-04 06:45:00,49.6,41.4,30.11,NNE,15,0.0,1.0,73,0.00,,,0.00,meteohub,2013-02-04 11:45:00,
2013-02-04 06:50:00,49.6,41.7,30.12,NNE,15,0.0,1.0,74,0.00,,,0.00,meteohub,2013-02-04 11:50:00,
2013-02-04 06:55:00,49.6,41.7,30.12,North,349,0.0,1.0,74,0.00,,,0.00,meteohub,2013-02-04 11:55:00,
2013-02-04 07:00:00,49.5,41.9,30.12,North,349,0.0,1.0,75,0.00,,,0.00,meteohub,2013-02-04 12:00:00,
2013-02-04 07:05:00,49.5,42.3,30.12,NNW,348,0.0,1.0,76,0.00,,,0.00,meteohub,2013-02-04 12:05:00,
2013-02-04 07:10:00,49.5,42.3,30.12,NNW,333,0.0,2.0,76,0.00,,,0.00,meteohub,2013-02-04 12:10:00,
2013-02-04 07:15:00,49.5,42.6,30.12,NNW,333,0.0,2.0,77,0.00,,,0.00,meteohub,2013-02-04 12:15:00,
2013-02-04 07:20:00,49.5,42.6,30.12,NNW,333,0.0,2.0,77,0.00,,,0.00,meteohub,2013-02-04 12:20:00,
2013-02-04 07:25:00,49.3,42.4,30.12,NNW,333,0.0,1.0,77,0.00,,,0.00,meteohub,2013-02-04 12:25:00,
2013-02-04 07:30:00,49.3,42.8,30.13,NNW,333,0.0,1.0,78,0.00,,,0.00,meteohub,2013-02-04 12:30:00,
2013-02-04 07:35:00,49.3,42.8,30.13,NNW,332,0.0,0.0,78,0.00,,,0.00,meteohub,2013-02-04 12:35:00,
2013-02-04 07:40:00,49.5,42.8,30.13,NW,326,0.0,1.0,78,0.00,,,0.00,meteohub,2013-02-04 12:40:00,
2013-02-04 07:45:00,49.6,43.0,30.13,NNW,328,0.0,2.0,78,0.00,,,0.00,meteohub,2013-02-04 12:45:00,
2013-02-04 07:50:00,49.8,43.0,30.13,North,5,0.0,2.0,77,0.00,,,0.00,meteohub,2013-02-04 12:50:00,
2013-02-04 07:55:00,50.0,43.2,30.13,NNW,334,0.0,2.0,77,0.00,,,0.00,meteohub,2013-02-04 12:55:00,
2013-02-04 08:00:00,50.4,43.2,30.13,NNW,331,0.0,2.0,76,0.00,,,0.00,meteohub,2013-02-04 13:00:00,
2013-02-04 08:05:00,50.5,43.0,30.13,North,355,0.0,2.0,75,0.00,,,0.00,meteohub,2013-02-04 13:05:00,
2013-02-04 08:10:00,50.7,43.2,30.13,North,0,0.0,2.0,75,0.00,,,0.00,meteohub,2013-02-04 13:10:00,
2013-02-04 08:15:00,51.3,43.3,30.14,NNE,32,0.0,2.0,74,0.00,,,0.00,meteohub,2013-02-04 13:15:00,
2013-02-04 08:20:00,52.0,43.5,30.14,North,349,0.0,2.0,73,0.00,,,0.00,meteohub,2013-02-04 13:20:00,
2013-02-04 08:25:00,52.7,43.9,30.14,North,355,0.0,2.0,72,0.00,,,0.00,meteohub,2013-02-04 13:25:00,
2013-02-04 08:30:00,53.4,44.2,30.14,North,355,0.0,2.0,71,0.00,,,0.00,meteohub,2013-02-04 13:30:00,
2013-02-04 08:35:00,54.1,44.2,30.14,NW,315,0.0,2.0,69,0.00,,,0.00,meteohub,2013-02-04 13:35:00,
2013-02-04 08:40:00,54.9,44.1,30.14,NW,321,0.0,2.0,67,0.00,,,0.00,meteohub,2013-02-04 13:40:00,
2013-02-04 08:45:00,55.4,44.6,30.14,NW,323,0.0,4.0,67,0.00,,,0.00,meteohub,2013-02-04 13:45:00,
2013-02-04 08:50:00,55.9,44.8,30.14,NNW,331,0.0,4.0,66,0.00,,,0.00,meteohub,2013-02-04 13:50:00,
2013-02-04 08:55:00,56.5,44.8,30.14,NW,324,1.0,4.0,65,0.00,,,0.00,meteohub,2013-02-04 13:55:00,
2013-02-04 09:00:00,57.2,45.1,30.14,NW,308,0.0,3.0,64,0.00,,,0.00,meteohub,2013-02-04 14:00:00,
2013-02-04 09:05:00,57.6,43.7,30.14,NW,321,1.0,4.0,60,0.00,,,0.00,meteohub,2013-02-04 14:05:00,
2013-02-04 09:10:00,58.1,44.8,30.14,NW,324,0.0,4.0,61,0.00,,,0.00,meteohub,2013-02-04 14:10:00,
2013-02-04 09:15:00,58.6,44.8,30.14,West,265,1.0,4.0,60,0.00,,,0.00,meteohub,2013-02-04 14:15:00,
2013-02-04 09:20:00,59.2,45.3,30.14,NW,326,0.0,5.0,60,0.00,,,0.00,meteohub,2013-02-04 14:20:00,
2013-02-04 09:25:00,59.5,44.2,30.15,West,269,0.0,5.0,57,0.00,,,0.00,meteohub,2013-02-04 14:25:00,
2013-02-04 09:30:00,60.3,44.1,30.15,North,350,0.0,5.0,55,0.00,,,0.00,meteohub,2013-02-04 14:30:00,
2013-02-04 09:35:00,61.2,45.3,30.14,WNW,290,0.0,4.0,56,0.00,,,0.00,meteohub,2013-02-04 14:35:00,
2013-02-04 09:40:00,61.9,44.6,30.15,NW,319,0.0,2.0,53,0.00,,,0.00,meteohub,2013-02-04 14:40:00,
2013-02-04 09:45:00,62.2,43.3,30.15,West,260,0.0,2.0,50,0.00,,,0.00,meteohub,2013-02-04 14:45:00,
2013-02-04 09:50:00,62.6,41.0,30.15,NW,324,1.0,3.0,45,0.00,,,0.00,meteohub,2013-02-04 14:50:00,
2013-02-04 09:55:00,63.1,42.1,30.14,NW,322,0.0,3.0,46,0.00,,,0.00,meteohub,2013-02-04 14:55:00,
2013-02-04 10:00:00,63.9,41.5,30.15,NW,315,0.0,3.0,44,0.00,,,0.00,meteohub,2013-02-04 15:00:00,
2013-02-04 10:05:00,64.0,40.5,30.15,WNW,294,0.0,3.0,42,0.00,,,0.00,meteohub,2013-02-04 15:05:00,
2013-02-04 10:10:00,64.4,40.8,30.14,WNW,283,0.0,3.0,42,0.00,,,0.00,meteohub,2013-02-04 15:10:00,
2013-02-04 10:15:00,65.1,40.3,30.14,West,279,2.0,3.0,40,0.00,,,0.00,meteohub,2013-02-04 15:15:00,
2013-02-04 10:20:00,65.7,41.4,30.14,NW,319,0.0,2.0,41,0.00,,,0.00,meteohub,2013-02-04 15:20:00,
2013-02-04 10:26:00,66.6,42.1,30.14,NW,316,0.0,2.0,41,0.00,,,0.00,meteohub,2013-02-04 15:26:00,
2013-02-04 10:31:00,67.1,40.6,30.14,West,273,0.0,3.0,38,0.00,,,0.00,meteohub,2013-02-04 15:31:00,
2013-02-04 10:36:00,67.6,41.2,30.14,WNW,295,0.0,3.0,38,0.00,,,0.00,meteohub,2013-02-04 15:36:00,
2013-02-04 10:41:00,68.0,41.4,30.14,WSW,244,0.0,3.0,38,0.00,,,0.00,meteohub,2013-02-04 15:41:00,
2013-02-04 10:46:00,68.4,41.0,30.14,SE,138,0.0,3.0,37,0.00,,,0.00,meteohub,2013-02-04 15:46:00,
2013-02-04 10:51:00,68.5,41.9,30.14,WNW,286,4.0,4.0,38,0.00,,,0.00,meteohub,2013-02-04 15:51:00,
2013-02-04 10:56:00,68.7,41.4,30.13,SSW,201,0.0,4.0,37,0.00,,,0.00,meteohub,2013-02-04 15:56:00,
2013-02-04 11:01:00,69.3,42.6,30.13,SW,226,2.0,5.0,38,0.00,,,0.00,meteohub,2013-02-04 16:01:00,
2013-02-04 11:06:00,69.3,40.5,30.13,SSW,198,0.0,5.0,35,0.00,,,0.00,meteohub,2013-02-04 16:06:00,
2013-02-04 11:11:00,69.4,42.1,30.12,SSE,167,0.0,5.0,37,0.00,,,0.00,meteohub,2013-02-04 16:11:00,
2013-02-04 11:16:00,70.2,41.9,30.12,West,269,3.0,4.0,36,0.00,,,0.00,meteohub,2013-02-04 16:16:00,
2013-02-04 11:21:00,70.5,42.3,30.12,SSE,166,2.0,4.0,36,0.00,,,0.00,meteohub,2013-02-04 16:21:00,
2013-02-04 11:26:00,70.3,42.8,30.12,ESE,104,0.0,6.0,37,0.00,,,0.00,meteohub,2013-02-04 16:26:00,
2013-02-04 11:31:00,70.5,42.3,30.12,West,273,4.0,7.0,36,0.00,,,0.00,meteohub,2013-02-04 16:31:00,
2013-02-04 11:36:00,71.1,42.8,30.12,West,269,0.0,7.0,36,0.00,,,0.00,meteohub,2013-02-04 16:36:00,
2013-02-04 11:41:00,71.4,43.2,30.11,ESE,109,0.0,7.0,36,0.00,,,0.00,meteohub,2013-02-04 16:41:00,
2013-02-04 11:46:00,71.2,43.0,30.12,South,182,4.0,5.0,36,0.00,,,0.00,meteohub,2013-02-04 16:46:00,
2013-02-04 11:51:00,71.2,43.0,30.12,SSW,211,0.0,7.0,36,0.00,,,0.00,meteohub,2013-02-04 16:51:00,
2013-02-04 11:56:00,71.8,44.1,30.11,SSE,167,0.0,7.0,37,0.00,,,0.00,meteohub,2013-02-04 16:56:00,
2013-02-04 12:01:00,72.1,44.4,30.11,ESE,117,1.0,7.0,37,0.00,,,0.00,meteohub,2013-02-04 17:01:00,
2013-02-04 12:06:00,72.3,45.3,30.11,SE,131,1.0,5.0,38,0.00,,,0.00,meteohub,2013-02-04 17:06:00,
2013-02-04 12:11:00,71.8,44.1,30.10,ESE,121,2.0,9.0,37,0.00,,,0.00,meteohub,2013-02-04 17:11:00,
2013-02-04 12:16:00,71.8,45.5,30.10,SE,126,2.0,9.0,39,0.00,,,0.00,meteohub,2013-02-04 17:16:00,
2013-02-04 12:21:00,71.6,44.6,30.10,North,9,1.0,9.0,38,0.00,,,0.00,meteohub,2013-02-04 17:21:00,
2013-02-04 12:26:00,72.0,44.2,30.10,South,177,0.0,7.0,37,0.00,,,0.00,meteohub,2013-02-04 17:26:00,
2013-02-04 12:31:00,72.3,44.6,30.09,South,173,0.0,5.0,37,0.00,,,0.00,meteohub,2013-02-04 17:31:00,
2013-02-04 12:36:00,72.9,43.5,30.09,SSW,211,0.0,5.0,35,0.00,,,0.00,meteohub,2013-02-04 17:36:00,
2013-02-04 12:41:00,73.4,44.8,30.09,South,180,1.0,6.0,36,0.00,,,0.00,meteohub,2013-02-04 17:41:00,
2013-02-04 12:46:00,73.8,44.4,30.08,SE,124,1.0,6.0,35,0.00,,,0.00,meteohub,2013-02-04 17:46:00,
2013-02-04 12:51:00,73.4,44.1,30.08,SE,144,1.0,7.0,35,0.00,,,0.00,meteohub,2013-02-04 17:51:00,
2013-02-04 12:56:00,73.0,43.0,30.08,SW,216,0.0,7.0,34,0.00,,,0.00,meteohub,2013-02-04 17:56:00,
2013-02-04 13:01:00,73.6,43.5,30.07,SSW,200,1.0,7.0,34,0.00,,,0.00,meteohub,2013-02-04 18:01:00,
2013-02-04 13:06:00,74.3,44.1,30.07,SSE,150,0.0,5.0,34,0.00,,,0.00,meteohub,2013-02-04 18:06:00,
2013-02-04 13:11:00,74.8,44.6,30.06,SSW,206,1.0,6.0,34,0.00,,,0.00,meteohub,2013-02-04 18:11:00,
2013-02-04 13:16:00,74.7,44.4,30.06,SE,134,3.0,7.0,34,0.00,,,0.00,meteohub,2013-02-04 18:16:00,
2013-02-04 13:21:00,74.1,45.5,30.06,South,173,3.0,8.0,36,0.00,,,0.00,meteohub,2013-02-04 18:21:00,
2013-02-04 13:26:00,74.3,46.4,30.05,SE,140,0.0,8.0,37,0.00,,,0.00,meteohub,2013-02-04 18:26:00,
2013-02-04 13:31:00,74.7,46.6,30.05,SE,146,3.0,8.0,37,0.00,,,0.00,meteohub,2013-02-04 18:31:00,
2013-02-04 13:36:00,74.5,45.0,30.05,SE,128,2.0,9.0,35,0.00,,,0.00,meteohub,2013-02-04 18:36:00,
2013-02-04 13:41:00,74.3,45.7,30.05,SSW,195,5.0,9.0,36,0.00,,,0.00,meteohub,2013-02-04 18:41:00,
2013-02-04 13:46:00,73.9,43.9,30.05,SW,228,2.0,9.0,34,0.00,,,0.00,meteohub,2013-02-04 18:46:00,
2013-02-04 13:51:00,74.7,42.8,30.05,SE,143,4.0,7.0,32,0.00,,,0.00,meteohub,2013-02-04 18:51:00,
2013-02-04 13:56:00,74.3,40.8,30.05,SE,128,4.0,7.0,30,0.00,,,0.00,meteohub,2013-02-04 18:56:00,
2013-02-04 14:01:00,74.1,43.9,30.05,SSW,198,5.0,7.0,34,0.00,,,0.00,meteohub,2013-02-04 19:01:00,
2013-02-04 14:06:00,73.8,44.4,30.05,South,175,5.0,8.0,35,0.00,,,0.00,meteohub,2013-02-04 19:06:00,
2013-02-04 14:11:00,73.9,48.7,30.04,SSW,194,4.0,8.0,41,0.00,,,0.00,meteohub,2013-02-04 19:11:00,
2013-02-04 14:16:00,73.9,50.7,30.04,South,170,3.0,8.0,44,0.00,,,0.00,meteohub,2013-02-04 19:16:00,
2013-02-04 14:17:00,73.9,51.3,30.04,South,175,8.0,8.0,45,0.00,,,0.00,meteohub,2013-02-04 19:17:00,
2013-02-04 14:22:00,73.9,51.3,30.04,ESE,119,0.0,8.0,45,0.00,,,0.00,meteohub,2013-02-04 19:22:00,
2013-02-04 14:27:00,73.9,50.0,30.04,ENE,78,3.0,8.0,43,0.00,,,0.00,meteohub,2013-02-04 19:27:00,
2013-02-04 14:32:00,73.6,50.9,30.04,ESE,117,1.0,8.0,45,0.00,,,0.00,meteohub,2013-02-04 19:32:00,
2013-02-04 14:37:00,73.8,50.5,30.04,ESE,113,3.0,8.0,44,0.00,,,0.00,meteohub,2013-02-04 19:37:00,
2013-02-04 14:42:00,73.2,50.5,30.04,SSE,159,1.0,8.0,45,0.00,,,0.00,meteohub,2013-02-04 19:42:00,
2013-02-04 14:47:00,73.2,51.3,30.04,SE,142,2.0,9.0,46,0.00,,,0.00,meteohub,2013-02-04 19:47:00,
2013-02-04 14:52:00,73.4,51.4,30.04,SSW,204,3.0,9.0,46,0.00,,,0.00,meteohub,2013-02-04 19:52:00,
2013-02-04 14:57:00,72.9,50.9,30.04,ENE,59,3.0,9.0,46,0.00,,,0.00,meteohub,2013-02-04 19:57:00,
2013-02-04 15:02:00,72.3,52.2,30.04,SE,137,6.0,8.0,49,0.00,,,0.00,meteohub,2013-02-04 20:02:00,
2013-02-04 15:07:00,72.3,52.2,30.04,ESE,115,2.0,9.0,49,0.00,,,0.00,meteohub,2013-02-04 20:07:00,
2013-02-04 15:12:00,72.3,52.7,30.04,SE,144,2.0,9.0,50,0.00,,,0.00,meteohub,2013-02-04 20:12:00,
2013-02-04 15:17:00,72.3,52.7,30.04,ESE,113,0.0,9.0,50,0.00,,,0.00,meteohub,2013-02-04 20:17:00,
2013-02-04 15:22:00,72.7,52.9,30.04,South,184,4.0,7.0,50,0.00,,,0.00,meteohub,2013-02-04 20:22:00,
2013-02-04 15:27:00,72.5,53.4,30.04,SSW,205,5.0,9.0,51,0.00,,,0.00,meteohub,2013-02-04 20:27:00,
2013-02-04 15:32:00,72.5,54.0,30.04,SE,139,5.0,9.0,52,0.00,,,0.00,meteohub,2013-02-04 20:32:00,
2013-02-04 15:37:00,72.5,53.4,30.04,South,185,5.0,9.0,51,0.00,,,0.00,meteohub,2013-02-04 20:37:00,
2013-02-04 15:42:00,72.3,53.8,30.04,SSE,147,0.0,9.0,52,0.00,,,0.00,meteohub,2013-02-04 20:42:00,
2013-02-04 15:47:00,72.1,54.1,30.04,SSE,148,3.0,9.0,53,0.00,,,0.00,meteohub,2013-02-04 20:47:00,
2013-02-04 15:52:00,72.1,54.1,30.03,SE,131,5.0,9.0,53,0.00,,,0.00,meteohub,2013-02-04 20:52:00,
2013-02-04 15:57:00,72.1,54.1,30.04,South,185,3.0,9.0,53,0.00,,,0.00,meteohub,2013-02-04 20:57:00,
2013-02-04 16:02:00,72.0,54.3,30.04,ESE,106,4.0,9.0,54,0.00,,,0.00,meteohub,2013-02-04 21:02:00,
2013-02-04 16:07:00,72.0,54.3,30.04,SE,142,4.0,9.0,54,0.00,,,0.00,meteohub,2013-02-04 21:07:00,
2013-02-04 16:12:00,71.8,54.7,30.04,SSE,165,0.0,8.0,55,0.00,,,0.00,meteohub,2013-02-04 21:12:00,
2013-02-04 16:17:00,71.8,54.3,30.04,ESE,105,2.0,8.0,54,0.00,,,0.00,meteohub,2013-02-04 21:17:00,
2013-02-04 16:22:00,71.6,54.5,30.04,SE,140,2.0,8.0,55,0.00,,,0.00,meteohub,2013-02-04 21:22:00,
2013-02-04 16:27:00,71.4,54.9,30.04,SE,138,0.0,8.0,56,0.00,,,0.00,meteohub,2013-02-04 21:27:00,
2013-02-04 16:32:00,71.4,54.5,30.04,South,171,3.0,8.0,55,0.00,,,0.00,meteohub,2013-02-04 21:32:00,
2013-02-04 16:37:00,71.4,54.5,30.04,SSE,156,3.0,8.0,55,0.00,,,0.00,meteohub,2013-02-04 21:37:00,
2013-02-04 16:41:00,71.2,54.3,30.04,SSE,155,1.0,8.0,55,0.00,,,0.00,meteohub,2013-02-04 21:41:00,
2013-02-04 16:47:00,71.1,54.5,30.04,SE,146,2.0,7.0,56,0.00,,,0.00,meteohub,2013-02-04 21:47:00,
2013-02-04 16:52:00,71.1,54.5,30.04,SE,138,3.0,6.0,56,0.00,,,0.00,meteohub,2013-02-04 21:52:00,
2013-02-04 16:57:00,70.9,54.0,30.04,SSE,163,3.0,7.0,55,0.00,,,0.00,meteohub,2013-02-04 21:57:00,
2013-02-04 17:01:00,70.9,54.3,30.04,East,100,0.0,7.0,56,0.00,,,0.00,meteohub,2013-02-04 22:01:00,
2013-02-04 17:07:00,70.5,54.5,30.04,ESE,115,1.0,7.0,57,0.00,,,0.00,meteohub,2013-02-04 22:07:00,
2013-02-04 17:12:00,70.3,54.3,30.04,SSE,158,1.0,7.0,57,0.00,,,0.00,meteohub,2013-02-04 22:12:00,
2013-02-04 17:17:00,70.3,54.3,30.04,SSW,198,1.0,7.0,57,0.00,,,0.00,meteohub,2013-02-04 22:17:00,
2013-02-04 17:22:00,70.2,54.7,30.04,ESE,103,0.0,7.0,58,0.00,,,0.00,meteohub,2013-02-04 22:22:00,
2013-02-04 17:27:00,70.0,54.5,30.04,South,189,2.0,7.0,58,0.00,,,0.00,meteohub,2013-02-04 22:27:00,
2013-02-04 17:32:00,69.6,54.1,30.04,SE,137,0.0,7.0,58,0.00,,,0.00,meteohub,2013-02-04 22:32:00,
2013-02-04 17:37:00,69.3,54.3,30.04,South,176,0.0,7.0,59,0.00,,,0.00,meteohub,2013-02-04 22:37:00,
2013-02-04 17:42:00,69.1,54.7,30.04,SSE,168,0.0,7.0,60,0.00,,,0.00,meteohub,2013-02-04 22:42:00,
2013-02-04 17:47:00,68.9,54.5,30.04,SSE,161,0.0,7.0,60,0.00,,,0.00,meteohub,2013-02-04 22:47:00,
2013-02-04 17:52:00,68.7,54.7,30.04,SSW,195,2.0,4.0,61,0.00,,,0.00,meteohub,2013-02-04 22:52:00,
2013-02-04 17:57:00,68.5,54.5,30.04,South,171,1.0,4.0,61,0.00,,,0.00,meteohub,2013-02-04 22:57:00,
2013-02-04 18:02:00,68.4,54.3,30.04,South,175,0.0,4.0,61,0.00,,,0.00,meteohub,2013-02-04 23:02:00,
2013-02-04 18:07:00,68.2,54.7,30.05,SSE,150,0.0,5.0,62,0.00,,,0.00,meteohub,2013-02-04 23:07:00,
2013-02-04 18:12:00,68.0,54.5,30.05,South,171,1.0,5.0,62,0.00,,,0.00,meteohub,2013-02-04 23:12:00,
2013-02-04 18:17:00,67.8,54.3,30.05,South,174,0.0,5.0,62,0.00,,,0.00,meteohub,2013-02-04 23:17:00,
2013-02-04 18:22:00,67.6,54.7,30.05,South,169,0.0,3.0,63,0.00,,,0.00,meteohub,2013-02-04 23:22:00,
2013-02-04 18:27:00,67.5,54.9,30.05,South,170,0.0,3.0,64,0.00,,,0.00,meteohub,2013-02-04 23:27:00,
2013-02-04 18:32:00,67.3,54.7,30.05,South,170,0.0,2.0,64,0.00,,,0.00,meteohub,2013-02-04 23:32:00,
2013-02-04 18:37:00,66.9,54.3,30.05,South,170,0.0,0.0,64,0.00,,,0.00,meteohub,2013-02-04 23:37:00,
2013-02-04 18:42:00,66.7,55.0,30.05,South,170,0.0,0.0,66,0.00,,,0.00,meteohub,2013-02-04 23:42:00,
2013-02-04 18:47:00,66.4,55.0,30.05,South,170,0.0,0.0,67,0.00,,,0.00,meteohub,2013-02-04 23:47:00,
2013-02-04 18:52:00,66.0,54.7,30.05,South,170,0.0,0.0,67,0.00,,,0.00,meteohub,2013-02-04 23:52:00,
2013-02-04 18:57:00,65.7,54.9,30.05,South,189,0.0,0.0,68,0.00,,,0.00,meteohub,2013-02-04 23:57:00,
2013-02-04 19:02:00,65.5,55.0,30.05,South,189,0.0,0.0,69,0.00,,,0.00,meteohub,2013-02-05 00:02:00,
2013-02-04 19:07:00,64.9,54.9,30.06,South,189,0.0,0.0,70,0.00,,,0.00,meteohub,2013-02-05 00:07:00,
2013-02-04 19:12:00,64.8,55.2,30.06,South,189,0.0,0.0,71,0.00,,,0.00,meteohub,2013-02-05 00:12:00,
2013-02-04 19:17:00,64.6,55.0,30.06,South,189,0.0,0.0,71,0.00,,,0.00,meteohub,2013-02-05 00:17:00,
2013-02-04 19:22:00,64.4,55.2,30.06,South,189,0.0,0.0,72,0.00,,,0.00,meteohub,2013-02-05 00:22:00,
2013-02-04 19:27:00,64.2,55.4,30.06,South,189,0.0,0.0,73,0.00,,,0.00,meteohub,2013-02-05 00:27:00,
2013-02-04 19:32:00,64.0,54.9,30.06,South,189,0.0,0.0,72,0.00,,,0.00,meteohub,2013-02-05 00:32:00,
2013-02-04 19:37:00,63.9,55.0,30.06,South,189,0.0,0.0,73,0.00,,,0.00,meteohub,2013-02-05 00:37:00,
2013-02-04 19:42:00,63.7,54.9,30.06,South,189,0.0,0.0,73,0.00,,,0.00,meteohub,2013-02-05 00:42:00,
2013-02-04 19:47:00,63.5,55.0,30.06,South,189,0.0,0.0,74,0.00,,,0.00,meteohub,2013-02-05 00:47:00,
2013-02-04 19:52:00,63.3,54.9,30.06,South,189,0.0,0.0,74,0.00,,,0.00,meteohub,2013-02-05 00:52:00,
2013-02-04 19:57:00,63.1,55.0,30.06,South,189,0.0,0.0,75,0.00,,,0.00,meteohub,2013-02-05 00:57:00,
2013-02-04 20:02:00,62.8,55.0,30.06,South,189,0.0,0.0,76,0.00,,,0.00,meteohub,2013-02-05 01:02:00,
2013-02-04 20:07:00,62.4,54.7,30.06,South,189,0.0,0.0,76,0.00,,,0.00,meteohub,2013-02-05 01:07:00,
2013-02-04 20:12:00,62.2,54.5,30.06,South,189,0.0,0.0,76,0.00,,,0.00,meteohub,2013-02-05 01:12:00,
2013-02-04 20:17:00,62.1,54.7,30.06,South,189,0.0,0.0,77,0.00,,,0.00,meteohub,2013-02-05 01:17:00,
2013-02-04 20:22:00,61.7,54.5,30.06,South,189,0.0,0.0,77,0.00,,,0.00,meteohub,2013-02-05 01:22:00,
2013-02-04 20:27:00,61.3,54.5,30.06,South,189,0.0,0.0,78,0.00,,,0.00,meteohub,2013-02-05 01:27:00,
2013-02-04 20:32:00,61.2,54.7,30.07,South,189,0.0,0.0,79,0.00,,,0.00,meteohub,2013-02-05 01:32:00,
2013-02-04 20:37:00,60.8,54.7,30.07,South,189,0.0,0.0,80,0.00,,,0.00,meteohub,2013-02-05 01:37:00,
2013-02-04 20:42:00,60.6,54.5,30.07,South,189,0.0,0.0,80,0.00,,,0.00,meteohub,2013-02-05 01:42:00,
2013-02-04 20:47:00,60.4,54.5,30.07,South,189,0.0,0.0,81,0.00,,,0.00,meteohub,2013-02-05 01:47:00,
2013-02-04 20:52:00,60.3,54.1,30.07,South,189,0.0,0.0,80,0.00,,,0.00,meteohub,2013-02-05 01:52:00,
2013-02-04 20:57:00,60.1,54.5,30.07,South,189,0.0,0.0,82,0.00,,,0.00,meteohub,2013-02-05 01:57:00,
2013-02-04 21:02:00,59.7,54.1,30.07,South,189,0.0,0.0,82,0.00,,,0.00,meteohub,2013-02-05 02:02:00,
2013-02-04 21:07:00,59.5,54.3,30.07,South,189,0.0,0.0,83,0.00,,,0.00,meteohub,2013-02-05 02:07:00,
2013-02-04 21:12:00,59.4,54.1,30.07,South,189,0.0,0.0,83,0.00,,,0.00,meteohub,2013-02-05 02:12:00,
2013-02-04 21:17:00,59.2,54.3,30.07,South,189,0.0,0.0,84,0.00,,,0.00,meteohub,2013-02-05 02:17:00,
2013-02-04 21:22:00,58.8,53.6,30.07,South,189,0.0,0.0,83,0.00,,,0.00,meteohub,2013-02-05 02:22:00,
2013-02-04 21:27:00,58.6,54.1,30.07,South,189,0.0,0.0,85,0.00,,,0.00,meteohub,2013-02-05 02:27:00,
2013-02-04 21:32:00,58.6,54.1,30.07,South,189,0.0,0.0,85,0.00,,,0.00,meteohub,2013-02-05 02:32:00,
2013-02-04 21:37:00,58.5,54.0,30.07,South,189,0.0,0.0,85,0.00,,,0.00,meteohub,2013-02-05 02:37:00,
2013-02-04 21:42:00,58.5,54.0,30.07,South,189,0.0,0.0,85,0.00,,,0.00,meteohub,2013-02-05 02:42:00,
2013-02-04 21:47:00,58.3,53.8,30.07,South,189,0.0,0.0,85,0.00,,,0.00,meteohub,2013-02-05 02:47:00,
2013-02-04 21:52:00,58.3,53.8,30.07,South,189,0.0,0.0,85,0.00,,,0.00,meteohub,2013-02-05 02:52:00,
2013-02-04 21:57:00,58.1,53.6,30.07,South,189,0.0,0.0,85,0.00,,,0.00,meteohub,2013-02-05 02:57:00,
2013-02-04 22:02:00,57.9,53.8,30.07,South,189,0.0,0.0,86,0.00,,,0.00,meteohub,2013-02-05 03:02:00,
2013-02-04 22:07:00,57.9,53.4,30.07,South,189,0.0,0.0,85,0.00,,,0.00,meteohub,2013-02-05 03:07:00,
2013-02-04 22:12:00,57.7,53.2,30.07,South,189,0.0,0.0,85,0.00,,,0.00,meteohub,2013-02-05 03:12:00,
2013-02-04 22:17:00,57.6,53.4,30.07,South,189,0.0,0.0,86,0.00,,,0.00,meteohub,2013-02-05 03:17:00,
2013-02-04 22:22:00,57.6,53.4,30.07,South,189,0.0,0.0,86,0.00,,,0.00,meteohub,2013-02-05 03:22:00,
2013-02-04 22:27:00,57.6,53.4,30.07,South,189,0.0,0.0,86,0.00,,,0.00,meteohub,2013-02-05 03:27:00,
2013-02-04 22:32:00,57.4,53.2,30.07,South,189,0.0,0.0,86,0.00,,,0.00,meteohub,2013-02-05 03:32:00,
2013-02-04 22:37:00,57.4,53.2,30.07,South,189,0.0,0.0,86,0.00,,,0.00,meteohub,2013-02-05 03:37:00,
2013-02-04 22:42:00,57.0,53.2,30.07,South,189,0.0,0.0,87,0.00,,,0.00,meteohub,2013-02-05 03:42:00,
2013-02-04 22:47:00,57.0,53.2,30.07,South,189,0.0,0.0,87,0.00,,,0.00,meteohub,2013-02-05 03:47:00,
2013-02-04 22:52:00,56.8,53.1,30.08,South,189,0.0,0.0,87,0.00,,,0.00,meteohub,2013-02-05 03:52:00,
2013-02-04 22:57:00,56.8,53.1,30.08,South,189,0.0,0.0,87,0.00,,,0.00,meteohub,2013-02-05 03:57:00,
2013-02-04 23:02:00,56.7,52.9,30.08,South,189,0.0,0.0,87,0.00,,,0.00,meteohub,2013-02-05 04:02:00,
2013-02-04 23:07:00,56.7,52.9,30.08,South,189,0.0,0.0,87,0.00,,,0.00,meteohub,2013-02-05 04:07:00,
2013-02-04 23:12:00,56.5,52.7,30.08,South,189,0.0,0.0,87,0.00,,,0.00,meteohub,2013-02-05 04:12:00,
2013-02-04 23:17:00,56.5,52.7,30.08,South,189,0.0,0.0,87,0.00,,,0.00,meteohub,2013-02-05 04:17:00,
2013-02-04 23:22:00,56.1,52.7,30.08,South,189,0.0,0.0,88,0.00,,,0.00,meteohub,2013-02-05 04:22:00,
2013-02-04 23:27:00,55.9,52.5,30.08,South,189,0.0,0.0,88,0.00,,,0.00,meteohub,2013-02-05 04:27:00,
2013-02-04 23:32:00,55.9,52.5,30.08,South,189,0.0,0.0,88,0.00,,,0.00,meteohub,2013-02-05 04:32:00,
2013-02-04 23:37:00,55.9,52.7,30.08,South,189,0.0,0.0,89,0.00,,,0.00,meteohub,2013-02-05 04:37:00,
2013-02-04 23:42:00,55.8,52.5,30.07,South,189,0.0,0.0,89,0.00,,,0.00,meteohub,2013-02-05 04:42:00,
2013-02-04 23:47:00,55.8,52.9,30.07,South,189,0.0,0.0,90,0.00,,,0.00,meteohub,2013-02-05 04:47:00,
2013-02-04 23:52:00,55.8,52.5,30.07,South,189,0.0,0.0,89,0.00,,,0.00,meteohub,2013-02-05 04:52:00,
2013-02-04 23:57:00,55.6,52.3,30.07,South,189,0.0,0.0,89,0.00,,,0.00,meteohub,2013-02-05 04:57:00,